Tracking 18852 objects as of 24-Nov-2017
HD Live streaming from Space Station
objects crossing your sky now

FENGYUN 1C DEB

Track FENGYUN 1C DEB now!
10-day predictions


NORAD ID: 31077
Int'l Code: 1999-025BFX
Perigee: 596.9 km
Apogee: 748.4 km
Inclination: 99.0 °
Period: 98.1 minutes
Semi major axis: 7043 km
RCS: 0.0141 m2 (small)
Launch date: May 10, 1999
Source: People's Republic of China (PRC)
Launch site: Taiyaun Space Center, China (TSC)

Note: This is SATELLITE DEBRIS
aabbcc
Your satellite tracking list
Your tracking list is empty




NASA's NSSDC Master Catalog

Two Line Element Set (TLE):
1 31077U 99025BFX 17327.75198509  .00001866  00000-0  30480-3 0  9996
2 31077  99.0019 298.3206 0107540 250.3175 108.6399 14.68605004567837
Source of the keplerian elements: AFSPC